Change the Weather History Date:

Wednesday, June 19, 2013

  Actual Average (KDFW) Record (KDFW)
Temperature  
Mean Temperature 80 °F 82 °F  
Max Temperature 90 °F 92 °F 103 °F (1980)
Min Temperature 69 °F 72 °F 56 °F (1912)
Degree Days  
Heating Degree Days 0 0  
Month to date heating degree days 0  
Since 1 June heating degree days 0  
Since 1 July heating degree days 2284  
Cooling Degree Days 14 17  
Month to date cooling degree days 292  
Year to date cooling degree days 714  
Since 1 June cooling degree days 292  
Growing Degree Days 30 (Base 50)    
Moisture  
Dew Point 72 °F    
Average Humidity 79    
Maximum Humidity 98    
Minimum Humidity 53    
Precipitation  
Precipitation 0.00 in 0.12 in 1.50 in (1920)
Month to date precipitation 2.56  
Year to date precipitation 18.81  
Sea Level Pressure  
Sea Level Pressure 29.95 in    
Wind  
Wind Speed 4 mph (East)    
Max Wind Speed 10 mph    
Max Gust Speed -    
Visibility 9 miles    
Events      
T = Trace of Precipitation, MM = Missing Value Source: NWS Daily Summary

Daily Weather History Graph

Daily Weather History Graph

Search for Another Location

Airport or City:

Trip Planner

Search our weather history database for the weather conditions in past years. The results will help you decide how hot, cold, wet, or windy it might be!

Date:

Astronomy

Jun. 19, 2013 Rise Set
Actual Time 6:17 AM CDT 8:36 PM CDT
Civil Twilight 5:48 AM CDT 9:05 PM CDT
Nautical Twilight 5:13 AM CDT 9:40 PM CDT
Astronomical Twilight 4:35 AM CDT 10:19 PM CDT
Moon 4:39 PM CDT (6/19) 2:52 AM CDT (6/19)
Length of Visible Light 15h 17m
Length of Day
14h 19m
Waxing Gibbous, 80% of the Moon is Illuminated
Jun 19
Waxing Gibbous
Jun 23
Full
Jun 29
Last Quarter
Jul 8
New
Jul 15
First Quarter

Hourly Weather History & Observations

Time (CDT) Temp. Heat Index Dew Point Humidity Pressure Visibility Wind Dir Wind Speed Gust Speed Precip Events Conditions
12:15 AM 73.0 °F - 70.0 °F 90% 29.96 in 10.0 mi ESE 3.5 mph - N/A   Clear
12:35 AM 72.9 °F - 70.2 °F 91% 29.96 in 10.0 mi Calm Calm - N/A   Clear
12:55 AM 72.7 °F - 70.2 °F 92% 29.96 in 10.0 mi Calm Calm - N/A   Clear
1:15 AM 72.0 °F - 69.8 °F 93% 29.96 in 10.0 mi Calm Calm - N/A   Clear
1:35 AM 71.6 °F - 70.0 °F 95% 29.96 in 10.0 mi Calm Calm - N/A   Clear
1:55 AM 70.2 °F - 69.1 °F 96% 29.95 in 7.0 mi East 3.5 mph - N/A   Clear
2:15 AM 70.7 °F - 69.4 °F 96% 29.95 in 10.0 mi Calm Calm - N/A   Clear
2:35 AM 70.0 °F - 69.1 °F 97% 29.95 in 7.0 mi ENE 3.5 mph - N/A   Clear
2:55 AM 70.2 °F - 69.3 °F 97% 29.95 in 10.0 mi East 4.6 mph - N/A   Clear
3:15 AM 70.7 °F - 69.6 °F 96% 29.95 in 10.0 mi East 4.6 mph - N/A   Clear
3:35 AM 71.1 °F - 69.8 °F 96% 29.95 in 10.0 mi ESE 5.8 mph - N/A   Clear
3:55 AM 70.9 °F - 69.8 °F 96% 29.95 in 10.0 mi ESE 5.8 mph - N/A   Clear
4:15 AM 70.9 °F - 70.0 °F 97% 29.95 in 7.0 mi ESE 5.8 mph - N/A   Clear
4:35 AM 70.7 °F - 70.0 °F 98% 29.95 in 5.0 mi SE 5.8 mph - N/A   Clear
4:55 AM 70.7 °F - 70.0 °F 98% 29.95 in 4.0 mi SE 5.8 mph - N/A   Clear
5:15 AM 70.7 °F - 70.0 °F 98% 29.95 in 5.0 mi SE 5.8 mph - N/A   Clear
5:35 AM 70.7 °F - 69.8 °F 97% 29.95 in 7.0 mi SE 6.9 mph - N/A   Clear
5:55 AM 70.5 °F - 69.3 °F 96% 29.96 in 7.0 mi ESE 4.6 mph - N/A   Clear
6:15 AM 70.0 °F - 69.3 °F 98% 29.96 in 5.0 mi East 4.6 mph - N/A   Clear
6:35 AM 69.4 °F - 68.9 °F 98% 29.97 in 3.0 mi East 4.6 mph - N/A   Clear
6:55 AM 69.4 °F - 68.9 °F 98% 29.97 in 5.0 mi East 3.5 mph - N/A   Scattered Clouds
7:15 AM 70.5 °F - 69.6 °F 97% 29.97 in 7.0 mi East 3.5 mph - N/A   Scattered Clouds
7:35 AM 72.0 °F - 69.8 °F 93% 29.97 in 10.0 mi East 5.8 mph - N/A   Scattered Clouds
7:55 AM 72.7 °F - 70.7 °F 93% 29.97 in 7.0 mi East 5.8 mph - N/A   Clear
8:15 AM 73.6 °F - 70.9 °F 91% 29.98 in 10.0 mi East 6.9 mph - N/A   Clear
8:35 AM 74.8 °F - 71.8 °F 90% 29.98 in 10.0 mi East 5.8 mph - N/A   Clear
8:55 AM 77.0 °F - 72.5 °F 86% 29.99 in 10.0 mi East 4.6 mph - N/A   Clear
9:15 AM 77.9 °F - 72.7 °F 84% 29.99 in 10.0 mi East 4.6 mph - N/A   Clear
9:35 AM 78.1 °F - 72.7 °F 83% 29.99 in 10.0 mi SE 6.9 mph - N/A   Mostly Cloudy
9:55 AM 79.7 °F - 73.2 °F 80% 30.00 in 10.0 mi SE 3.5 mph - N/A   Mostly Cloudy
10:15 AM 81.0 °F 86.0 °F 73.4 °F 78% 30.00 in 10.0 mi ENE 6.9 mph - N/A   Mostly Cloudy
10:35 AM 79.9 °F - 73.2 °F 80% 30.00 in 10.0 mi ENE 5.8 mph - N/A   Mostly Cloudy
10:55 AM 81.3 °F 86.8 °F 73.8 °F 78% 29.99 in 10.0 mi NE 8.1 mph - N/A   Overcast
11:15 AM 81.3 °F 86.5 °F 73.6 °F 77% 29.99 in 10.0 mi ENE 8.1 mph - N/A   Overcast
11:35 AM 81.1 °F 86.4 °F 73.6 °F 78% 30.00 in 10.0 mi East 5.8 mph - N/A   Mostly Cloudy
11:55 AM 83.5 °F 90.6 °F 74.3 °F 74% 30.00 in 10.0 mi ENE 4.6 mph - N/A   Mostly Cloudy
12:15 PM 83.3 °F 89.6 °F 73.6 °F 72% 30.00 in 10.0 mi NE 5.8 mph - N/A   Mostly Cloudy
12:35 PM 84.4 °F 91.3 °F 73.8 °F 70% 30.00 in 10.0 mi East 6.9 mph - N/A   Mostly Cloudy
12:55 PM 85.3 °F 92.6 °F 73.8 °F 68% 30.00 in 10.0 mi East 5.8 mph - N/A   Scattered Clouds
1:15 PM 85.1 °F 92.6 °F 73.8 °F 69% 30.00 in 10.0 mi East 8.1 mph - N/A   Mostly Cloudy
1:35 PM 86.5 °F 94.6 °F 73.9 °F 66% 29.99 in 10.0 mi East 5.8 mph - N/A   Scattered Clouds
1:55 PM 86.4 °F 94.2 °F 73.9 °F 66% 29.98 in 10.0 mi East 3.5 mph - N/A   Scattered Clouds
2:15 PM 87.4 °F 95.8 °F 73.8 °F 64% 29.98 in 10.0 mi ENE 5.8 mph - N/A   Scattered Clouds
2:35 PM 87.3 °F 95.3 °F 73.8 °F 64% 29.97 in 10.0 mi ENE 6.9 mph - N/A   Scattered Clouds
2:55 PM 88.3 °F 95.9 °F 73.0 °F 60% 29.97 in 10.0 mi East 5.8 mph - N/A   Scattered Clouds
3:15 PM 88.0 °F 95.6 °F 72.9 °F 61% 29.95 in 10.0 mi East 5.8 mph - N/A   Scattered Clouds
3:35 PM 89.2 °F 97.4 °F 73.0 °F 59% 29.94 in 10.0 mi ESE 9.2 mph - N/A   Scattered Clouds
3:55 PM 89.4 °F 97.8 °F 73.6 °F 59% 29.93 in 10.0 mi ESE 5.8 mph - N/A   Scattered Clouds
4:15 PM 90.1 °F 98.3 °F 73.2 °F 57% 29.93 in 10.0 mi East 5.8 mph - N/A   Scattered Clouds
4:35 PM 89.6 °F 97.2 °F 72.5 °F 57% 29.92 in 10.0 mi SE 8.1 mph - N/A   Scattered Clouds
4:55 PM 89.6 °F 96.6 °F 72.0 °F 56% 29.92 in 10.0 mi ESE 10.4 mph - N/A   Clear
5:15 PM 89.8 °F 95.6 °F 70.7 °F 53% 29.93 in 10.0 mi ESE 6.9 mph - N/A   Clear
5:35 PM 89.6 °F 95.2 °F 70.5 °F 53% 29.93 in 10.0 mi East 8.1 mph - N/A   Scattered Clouds
5:55 PM 88.7 °F 95.7 °F 72.0 °F 58% 29.92 in 10.0 mi ESE 6.9 mph - N/A   Scattered Clouds
6:15 PM 88.2 °F 94.6 °F 71.6 °F 58% 29.92 in 10.0 mi East 6.9 mph - N/A   Scattered Clouds
6:35 PM 87.3 °F 94.9 °F 73.2 °F 63% 29.92 in 10.0 mi ENE 6.9 mph - N/A   Mostly Cloudy
6:55 PM 86.4 °F 93.4 °F 73.0 °F 64% 29.91 in 10.0 mi ESE 6.9 mph - N/A   Mostly Cloudy
7:15 PM 85.5 °F 92.2 °F 73.0 °F 66% 29.90 in 10.0 mi East 8.1 mph - N/A   Clear
7:35 PM 84.6 °F 91.0 °F 72.9 °F 68% 29.89 in 10.0 mi East 6.9 mph - N/A   Clear
7:55 PM 83.8 °F 90.4 °F 73.4 °F 71% 29.88 in 10.0 mi ESE 10.4 mph - N/A   Clear
8:15 PM 83.5 °F 90.0 °F 73.8 °F 72% 29.89 in 10.0 mi East 9.2 mph - N/A   Clear
8:35 PM 83.1 °F 89.8 °F 73.9 °F 74% 29.92 in 10.0 mi East 3.5 mph - N/A   Clear
8:55 PM 82.4 °F 88.2 °F 73.4 °F 74% 29.92 in 10.0 mi ESE 6.9 mph - N/A   Clear
9:15 PM 81.5 °F 86.7 °F 73.4 °F 76% 29.92 in 10.0 mi East 3.5 mph - N/A   Scattered Clouds
9:35 PM 81.0 °F 85.8 °F 73.0 °F 77% 29.93 in 10.0 mi East 5.8 mph - N/A   Scattered Clouds
9:55 PM 80.6 °F 85.0 °F 72.7 °F 77% 29.92 in 10.0 mi East 5.8 mph - N/A   Clear
10:15 PM 79.7 °F - 72.7 °F 79% 29.92 in 10.0 mi East 4.6 mph - N/A   Clear
10:35 PM 79.7 °F - 72.0 °F 77% 29.94 in 10.0 mi ESE 3.5 mph - N/A   Clear
10:55 PM 79.0 °F - 71.6 °F 78% 29.95 in 10.0 mi East 5.8 mph - N/A   Clear
11:15 PM 79.2 °F - 71.4 °F 77% 29.96 in 10.0 mi ESE 5.8 mph - N/A   Clear
11:35 PM 78.8 °F - 71.2 °F 78% 29.96 in 10.0 mi ESE 4.6 mph - N/A   Clear
11:55 PM 77.9 °F - 71.6 °F 81% 29.96 in 10.0 mi ESE 4.6 mph - N/A   Clear